Location: The Jewett Observatory
(46.7288°N, 117.1525°W)
Time: 18:49:03
(UTC-07:00)

Meteor 1-28 Rocket - Visible Passes

Search period start: 18 April 2014 00:00
Search period end: 28 April 2014 00:00
Orbit: 515 x 538 km, 97.3° (Epoch: 17 April)

Date Brightness Start Highest point End Pass type
(mag) Time Alt. Az. Time Alt. Az. Time Alt. Az.
18 Apr 3.7 21:06:29 10° NNE 21:10:08 40° E 21:12:02 23° SSE visible
18 Apr 5.9 22:41:30 10° NNW 22:44:09 18° WNW 22:46:48 10° WSW visible
19 Apr 4.1 20:55:11 10° NNE 20:58:36 30° E 21:00:36 19° SE visible
19 Apr 5.5 22:29:42 10° NNW 22:32:46 23° WNW 22:35:50 10° WSW visible
20 Apr 4.5 20:43:57 10° NE 20:47:03 23° E 20:49:09 15° SE visible
20 Apr 5.1 22:17:59 10° N 22:21:22 30° WNW 22:24:23 12° SW visible
21 Apr 4.8 20:32:50 10° NE 20:35:29 18° E 20:37:42 12° SE visible
21 Apr 4.5 22:06:20 10° N 22:09:56 39° WNW 22:12:56 14° SW visible
22 Apr 5.1 20:21:57 10° ENE 20:23:53 13° E 20:25:48 10° ESE visible
22 Apr 4.0 21:54:44 10° N 21:58:30 53° WNW 22:01:29 15° SSW visible
23 Apr 3.4 21:43:10 10° N 21:47:01 73° WNW 21:50:00 16° SSW visible
24 Apr 3.1 21:31:39 10° NNE 21:35:31 83° ESE 21:38:32 16° S visible
24 Apr 6.5 23:08:43 10° NW 23:09:12 10° WNW 23:09:41 10° WNW visible
25 Apr 3.2 21:20:10 10° NNE 21:24:00 61° E 21:27:03 15° S visible
25 Apr 6.2 22:55:57 10° NNW 22:57:50 13° WNW 22:59:42 10° W visible
26 Apr 3.6 21:08:44 10° NNE 21:12:28 44° E 21:15:33 14° SSE visible
26 Apr 6.0 22:43:54 10° NNW 22:46:26 17° WNW 22:48:58 10° WSW visible
27 Apr 4.0 20:57:22 10° NNE 21:00:53 33° E 21:04:03 12° SSE visible
27 Apr 5.7 22:32:01 10° NNW 22:35:01 22° WNW 22:38:00 10° WSW visible
